Flag for Japan Weather past 2 weeks in Hamamatsu, Japan

Now
80 °F

Fog.


Feels Like: 85 °F
Forecast: 76 / 90 °F
Wind: 3 mph from Southwest

Location: Omaezaki

Current Time: Aug 4, 2015 at 7:22:32 AM

Latest Report: Aug 4, 2015 at 5:00 AM


Visibility: 3 mi

Pressure: 29.85 "Hg

Humidity: 95%

Dew point: 78 °F

Location of HamamatsuLocation

Historic Weather in Hamamatsu — Graph

°F

Hamamatsu temperature yesterday

Maximum temperature yesterday: 88 °F (at 2:00 PM)
Minimum temperature yesterday: 79 °F (at 5:00 AM)
Average temperature yesterday: 83 °F

Past Weeks' High & Low Weather Summary

 TemperatureHumidityPressure
High89 °F (Aug 2, 1:00 PM)99% (Jul 25, 3:00 AM)30.01 "Hg (Jul 25, 3:00 AM)
Low74 °F (Jul 22, 4:00 AM)63% (Jul 28, 1:00 PM)29.67 "Hg (Jul 28, 5:00 PM)
Average81 °F88%29.86 "Hg
* Reported Jul 20 5:00 AM — Aug 4 5:00 AM, Hamamatsu, Weather by CustomWeather, © 2015

Note: Actual official high and low records may vary slightly from our data, if they occured in-between our weather recording intervals... More about our weather records

Advertising

Hamamatsu weather history for previous 24 hours

 ConditionsComfort  
Time TempWeatherWind HumidityBarometerVisibility
5:00 AM
Tue, Aug 4
80 °FFog.3 mph95%29.85 "Hg3 mi
4:00 AM80 °FFog.3 mph96%29.85 "Hg2 mi
3:00 AM80 °FFog.3 mph96%29.86 "Hg2 mi
2:00 AM80 °FFog.3 mph97%29.86 "Hg2 mi
1:00 AM80 °FFog.3 mph96%29.87 "Hg2 mi
12:00 AM81 °FFog.3 mph95%29.88 "Hg3 mi
11:00 PM
Mon, Aug 3
81 °FFog.6 mph94%29.89 "Hg3 mi
10:00 PM82 °FFog.3 mph93%29.90 "Hg3 mi
9:00 PM82 °FFog.5 mph91%29.90 "Hg4 mi
8:00 PM82 °FFog.6 mph91%29.88 "Hg4 mi
7:00 PM83 °FFog.6 mph90%29.88 "Hg4 mi
6:00 PM83 °FFog.7 mph87%29.86 "Hg6 mi
5:00 PM85 °FFog.8 mph86%29.86 "Hg5 mi
4:00 PM86 °FWarm.9 mph83%29.86 "Hg6 mi
3:00 PM88 °FWarm.9 mph79%29.86 "Hg7 mi
2:00 PM88 °FWarm.10 mph74%29.87 "Hg8 mi
11:00 AM87 °FWarm.7 mph78%29.90 "Hg7 mi
10:00 AM86 °FFog.6 mph80%29.91 "Hg6 mi
9:00 AM84 °FFog.6 mph85%29.92 "Hg4 mi
8:00 AM83 °FFog.5 mph87%29.93 "Hg4 mi
7:00 AM82 °FFog.5 mph91%29.92 "Hg3 mi
Weather by CustomWeather, © 2015

See weather overviewHow to use our weather pages